DELTA 1 DEB, 10708

Orbit data source: Space-Track

DELTA 1 DEB, 10708 is space debris in SSO originally from a launch on Thu, 29 Jul 1976 UTC launched from the Air Force Western Test Range (AFWTR). Debris objects in space refer to the collection of defunct objects orbiting the Earth. Examples of debris include non-operational satellites, rocket bodies, and fragments generated from explosions, collisions, or faulty payload assembly.

Loading next visibility...
Identifier
10708, 1976-077AD
Orbit
SSO
Last TLE update
7 hours ago
Origin
Manufacturer
Unknown
Mission
Spacecraft
Bus & Motor
Unknown
Mass
Unknown
Launch date (UTC)
1976-07-29 (49 years ago)
Launch vehicle
Unknown
Launch site
Air Force Western Test Range (AFWTR)
Object type
Payload
Rocket body
Debris
Shape & HBR
Unknown
Radar Cross Section
Small (<0.1 m²)

Expand to show TLE details & history

TLE from 7 hours ago
0 DELTA 1 DEB
1 10708U 76077AD  25182.90214303  .00000217  00000-0  13673-2 0  9995
2 10708 101.2122 197.2826 0163069 344.4825 132.4223 12.63133380243957
Epoch: 2025-07-01T21:39Z
TLE epoch observation values (Epoch: 2025-07-01T21:39:05.157Z)
Latitude
59.85386°
Longitude
152.17639°
Altitude
1,506.844 km
Speed
7.077 km/s
True Right ascension
02h 28m 33s
True Declination
59° 43' 07"
Sunlit
Object was in daylight at epoch
Visualization orbit readout
Latitude
-46.23015°
Longitude
-35.52784°
Altitude
1,318.357 km
Speed
7.248 km/s
Apparent Right ascension
09h 35m 10s
Apparent Declination
-73° 33' 20"
Sunlit
Object is in daylight
Visualization observer readout
Local Sidereal Time
16:05:01
Azimuth
201.515° SSW
Elevation
-40.062°
Doppler factor
1
Orbital elements
Apogee altitude
1,534.496 km
Perigee altitude
1,280.575 km
Semi-major axis
7,785.673 km
Eccentricity
0.01631
Inclination
101.2122°
RAAN
197.2826°
Arg. of periapsis
344.4825°
True anomaly
Unknown
Mean anomaly
132.4223°
Eccentric anomaly
Unknown
Mean motion
3.15936 °/min
Orbital period
113.95 mins
BSTAR
0.0013673
Loading maneuver chart data...
Loading SW <> Apogee altitude chart data...
Loading historical data...
Loading historical data...
Loading historical data...
Loading historical data...
Loading historical data...
Loading historical data...
Loading historical data...

DELTA 1 DEB Visibility forecast

Observer location: undefined°, undefined°

Span
Click to sort rows by Start time (UTC) header in descending order
Start Az.
Max El. time (UTC)
Max El. Az.
Max El.
End time (UTC)
End Az.
15 mins2025-07-02 12:51:37.206Z33.189° NE2025-07-02 12:59:37.206Z102.693° ESE31.115°2025-07-02 13:06:37.206Z160.715° S
15 mins2025-07-02 14:44:37.206Z4.015° NNE2025-07-02 14:51:37.206Z289.038° WNW38.312°2025-07-02 14:59:37.206Z222.621° SW
13 mins2025-07-02 23:46:37.206Z124.555° SE2025-07-02 23:52:37.206Z61.528° ENE33.225°2025-07-02 23:59:37.206Z357.066° N
13 mins2025-07-03 01:38:37.206Z196.515° SSW2025-07-03 01:44:37.206Z262.492° W33.666°2025-07-03 01:51:37.206Z328.969° NNW
|